#timestamp,LO_Frequency,Hit,StdDev 
1551236415.3,286047001.9,N
1551236435.2,286046999.7,N
1551236455.0,286046999.9,N
1551236455.9,286046999.9,N
1551236475.7,286046998.3,N
1551236495.6,286047002.1,N
1551236515.4,286046999.8,N
1551236535.3,286047002.6,N
1551236555.1,286047002.0,N
1551236556.0,286047002.0,N
1551236575.8,286047001.2,N
1551236595.7,286046998.2,N
1551236615.5,286046998.5,N
1551236635.3,286046998.4,N
1551236655.2,286047002.8,N
1551236675.0,286046999.7,N
1551236675.9,286046999.7,N
1551236695.8,286047002.5,N
1551236715.6,286047001.7,N
1551236735.4,286047002.5,N
1551236755.3,286047001.4,N
1551236775.1,286047001.6,N
1551236795.9,286047004.1,N
1551236815.7,286047002.0,N
1551236835.5,286047003.0,N
1551236855.4,286047004.3,N
1551236875.2,286047003.2,N
1551236895.0,286047002.5,N
1551236895.9,286047002.5,N
1551236915.8,286047002.0,N
1551236935.6,286047001.7,N
1551236955.5,286047001.6,N
1551236975.3,286047002.1,N
1551236995.1,286046999.9,N
1551237015.9,286047000.2,N
1551237035.7,286047000.5,N
1551237055.5,286047000.3,N
1551237075.4,286047000.2,N
1551237095.2,286047000.2,N
1551237115.1,286046999.7,N
1551237116.0,286046999.7,N
1551237135.8,286047001.0,N
1551237155.6,286047000.0,N
1551237175.5,286047000.5,N
1551237195.3,286046999.8,N
1551237215.1,286047000.6,N
1551237235.9,286047000.7,N
1551237255.7,286047002.8,N
1551237275.6,286047000.3,N
1551237295.4,286046999.9,N
1551237315.2,286046998.3,N
1551237335.1,286047002.0,N
1551237336.0,286047002.0,N
1551237355.8,286047002.1,N
1551237375.7,286047000.5,N
1551237395.5,286047000.9,N
1551237415.3,286047002.6,N
1551237435.2,286047002.4,N
1551237455.0,286047001.8,N
1551237455.9,286047001.8,N
1551237475.7,286047001.4,N
1551237495.6,286047005.8,Y
1551237515.4,286047003.8,P
1551237535.3,286047002.2,N
1551237555.1,286047002.7,N
1551237575.8,286047000.3,N
1551237595.7,286047002.4,N
1551237615.5,286047002.4,N
1551237635.4,286047002.5,N
1551237655.2,286047002.0,N
1551237675.0,286047000.3,N
1551237675.9,286047000.3,N
1551237695.8,286047002.1,N
1551237715.6,286047002.6,N
1551237735.4,286047001.9,N
1551237755.3,286047001.8,N
1551237775.1,286047002.6,N
1551237795.9,286047000.2,N
1551237815.7,286047002.5,N
1551237835.5,286047001.9,N
1551237855.4,286047002.6,N
1551237875.2,286047000.4,N
1551237895.0,286046999.7,N
1551237895.9,286046999.7,N
1551237915.8,286047002.4,N
1551237935.6,286047002.7,N
1551237955.5,286047002.5,N
1551237975.3,286046999.7,N
1551237995.1,286046999.7,N
1551238015.9,286047000.0,N
1551238035.7,286046998.7,N
1551238055.5,286046996.5,N
1551238075.4,286046999.3,N
1551238095.2,286046998.4,N
1551238115.1,286046998.1,N
1551238116.0,286046998.1,N
1551238135.8,286046999.9,N
1551238155.6,286046999.8,N
1551238175.5,286047000.0,N
1551238195.3,286047002.8,N
1551238215.1,286046999.9,N
1551238235.9,286047002.3,N
1551238255.7,286047000.6,N
1551238275.6,286047000.6,N
1551238295.4,286046999.8,N
1551238315.2,286047002.4,N
1551238335.1,286047002.6,N
1551238336.0,286047002.6,N
1551238355.8,286047001.6,N
1551238375.6,286047000.3,N
1551238395.5,286046998.4,N
1551238415.3,286046998.7,N
1551238435.2,286047001.0,N
1551238455.9,286046999.7,N
1551238475.7,286047001.3,N
1551238495.6,286047004.0,N
1551238515.4,286047003.4,N
1551238535.3,286047003.8,N
1551238555.1,286047003.9,N
1551238556.0,286047003.9,N
1551238575.8,286047001.8,N
1551238595.7,286047002.5,N
1551238615.5,286047004.4,N
1551238635.3,286047001.3,N
1551238655.2,286047002.6,N
1551238675.0,286047000.1,N
1551238675.9,286047000.1,N
1551238695.8,286047002.4,N
1551238715.6,286047000.2,N
1551238735.4,286047002.8,N
1551238755.3,286047000.5,N
1551238775.1,286047002.7,N
1551238795.9,286047000.1,N
1551238815.7,286047002.2,N
1551238835.5,286047002.4,N
1551238855.4,286047002.6,N
1551238875.2,286047002.8,N
1551238895.0,286047002.0,N
1551238896.0,286047002.0,N
1551238915.8,286047001.9,N
1551238935.6,286047000.3,N
1551238955.5,286046996.5,N
1551238975.3,286047001.9,N
1551238995.1,286046999.9,N
1551239015.9,286047002.5,N
1551239035.7,286046999.8,N
1551239055.6,286046999.8,N
1551239075.4,286047002.4,N
1551239095.2,286047000.1,N
1551239115.1,286047000.9,N
1551239116.0,286047000.9,N
1551239135.8,286046998.3,N
1551239155.6,286046999.0,N
1551239175.5,286046999.1,N
1551239195.3,286046998.5,N
1551239215.2,286046999.4,N
1551239235.9,286046996.5,N
1551239255.7,286046997.2,N
1551239275.6,286046999.1,N
1551239295.4,286046999.5,N
1551239315.2,286046999.6,N
1551239335.1,286046999.2,N
1551239336.0,286046999.2,N
1551239355.8,286046997.3,N
1551239375.7,286046997.8,N
1551239395.5,286046997.8,N
1551239415.3,286046996.6,N
1551239435.2,286046997.8,N
1551239455.0,286046997.6,N
1551239455.9,286046997.6,N
1551239475.8,286046997.7,N
1551239495.6,286046997.0,N
1551239515.4,286046999.4,N
1551239535.3,286046999.2,N
1551239555.1,286046999.0,N
1551239575.9,286046997.0,N
1551239595.7,286046999.6,N
1551239615.5,286047001.2,N
1551239635.4,286046999.6,N
1551239655.2,286047001.1,N
1551239675.0,286046998.9,N
1551239675.9,286046998.9,N
1551239695.8,286046999.4,N
1551239715.6,286046997.2,N
1551239735.5,286046995.0,Y
1551239755.3,286046996.6,P
1551239775.1,286046996.8,P
1551239795.9,286046998.7,N
1551239815.7,286046999.3,N
1551239835.5,286046998.7,N
1551239855.4,286046999.3,N
1551239875.2,286046999.1,N
1551239895.1,286046996.8,Y
1551239896.0,286046996.8,P
1551239915.8,286047001.0,N
1551239935.6,286047000.3,N
1551239955.5,286046998.5,N
1551239975.3,286047000.4,N
1551239995.2,286047002.5,N
